Anniston, AL

7:43 PM CDT on June 24, 2018 (GMT -0500)
Anniston Metro

Weather History for KANB - August, 2017

Change the Weather History Date:

Sunday, August 13, 2017

  Actual Average Record
Temperature  
Mean Temperature 82 °F 80 °F  
Max Temperature 92 °F 90 °F 102 °F (2007)
Min Temperature 72 °F 70 °F 54 °F (1964)
Cooling Degree Days 16    
Growing Degree Days 30 (Base 50)    
Moisture  
Dew Point 72 °F    
Average Humidity 75    
Maximum Humidity 100    
Minimum Humidity 50    
Precipitation  
Precipitation 0.00 in 0.11 in 2.01 in (1963)
Month to date precipitation 2.77 1.48  
Year to date precipitation 41.36 33.11  
Sea Level Pressure  
Sea Level Pressure 29.95 in    
Wind  
Wind Speed 1 mph (NW)    
Max Wind Speed 9 mph    
Max Gust Speed 13 mph    
Visibility 6 miles    
Events Fog    
T = Trace of Precipitation, MM = Missing Value Source: NWS Daily Summary

Daily Weather History Graph

Daily Weather History Graph

Search for Another Location

Airport or City:

Astronomy

Aug. 13, 2017 Rise Set
Actual Time 6:04 AM CDT 7:31 PM CDT
Civil Twilight 5:38 AM CDT 7:57 PM CDT
Nautical Twilight 5:06 AM CDT 8:29 PM CDT
Astronomical Twilight 4:33 AM CDT 9:02 PM CDT
Moon 11:23 PM CDT (8/13) 11:46 AM CDT (8/13)
Length of Visible Light 14h 19m
Length of Day
13h 27m
Waning Gibbous, 65% of the Moon is Illuminated
Aug 13
Waning Gibbous
Aug 14
Last Quarter
Aug 21
New
Aug 29
First Quarter
Sep 6
Full

Hourly Weather History & Observations

Time (CDT) Temp. Heat Index Dew Point Humidity Pressure Visibility Wind Dir Wind Speed Gust Speed Precip Events Conditions
12:53 AM 73.9 °F - 71.1 °F 91% 29.92 in 10.0 mi Calm Calm - N/A   Scattered Clouds
1:53 AM 73.9 °F - 72.0 °F 93% 29.92 in 10.0 mi Calm Calm - N/A   Mostly Cloudy
2:53 AM 73.9 °F - 71.1 °F 91% 29.91 in 10.0 mi Calm Calm - N/A   Overcast
3:04 AM 73.0 °F - 72.0 °F 96% 29.94 in 10.0 mi Calm Calm - N/A   Overcast
3:53 AM 73.9 °F - 71.1 °F 91% 29.92 in 10.0 mi Calm Calm - N/A   Overcast
4:25 AM 72.0 °F - 71.1 °F 97% 29.95 in 2.5 mi Calm Calm - N/A   Overcast
4:32 AM 72.0 °F - 71.1 °F 97% 29.95 in 0.8 mi Calm Calm - N/A   Overcast
4:43 AM 72.0 °F - 71.1 °F 97% 29.95 in 0.5 mi Calm Calm - N/A Fog Fog
4:53 AM 72.0 °F - 71.1 °F 97% 29.93 in 0.5 mi Calm Calm - N/A Fog Fog
5:14 AM 72.0 °F - 71.1 °F 97% 29.96 in 0.5 mi Calm Calm - N/A Fog Fog
5:18 AM 72.0 °F - 71.1 °F 97% 29.96 in 1.0 mi Calm Calm - N/A   Mist
5:22 AM 72.0 °F - 71.1 °F 97% 29.96 in 4.0 mi Calm Calm - N/A   Overcast
5:42 AM 72.0 °F - 71.1 °F 97% 29.96 in 7.0 mi Calm Calm - N/A   Overcast
5:53 AM 72.0 °F - 71.1 °F 97% 29.95 in 7.0 mi Calm Calm - N/A   Overcast
5:57 AM 72.0 °F - 71.1 °F 97% 29.97 in 1.5 mi Calm Calm - N/A   Overcast
6:16 AM 72.0 °F - 71.1 °F 97% 29.98 in 3.0 mi Calm Calm - N/A   Overcast
6:50 AM 71.6 °F - 71.6 °F 100% 29.99 in 1.8 mi Calm Calm - N/A   Overcast
6:53 AM 72.0 °F - 71.1 °F 97% 29.96 in 1.2 mi Calm Calm - N/A   Overcast
7:00 AM 72.0 °F - 72.0 °F 100% 29.99 in 0.5 mi ESE 3.5 mph - N/A Fog Fog
7:15 AM 72.0 °F - 71.1 °F 97% 29.99 in 1.0 mi Calm Calm - N/A   Overcast
7:32 AM 72.0 °F - 72.0 °F 100% 29.99 in 0.5 mi Calm Calm - N/A Fog Fog
7:48 AM 71.6 °F - 71.6 °F 100% 30.00 in 1.0 mi Calm Calm - N/A   Overcast
7:53 AM 73.0 °F - 72.0 °F 96% 29.98 in 1.5 mi Calm Calm - N/A   Overcast
8:08 AM 73.0 °F - 72.0 °F 96% 30.00 in 3.0 mi Calm Calm - N/A   Overcast
8:28 AM 73.9 °F - 73.0 °F 97% 30.00 in 7.0 mi SE 3.5 mph - N/A   Scattered Clouds
8:53 AM 75.9 °F - 73.0 °F 91% 29.97 in 10.0 mi Calm Calm - N/A   Partly Cloudy
9:53 AM 81.0 °F 85.8 °F 73.0 °F 77% 29.98 in 10.0 mi Calm Calm - N/A   Clear
10:53 AM 84.0 °F 90.2 °F 73.0 °F 69% 29.98 in 10.0 mi Calm Calm - N/A   Clear
11:53 AM 86.0 °F 93.0 °F 73.0 °F 65% 29.96 in 10.0 mi Calm Calm - N/A   Clear
12:53 PM 86.0 °F 92.2 °F 72.0 °F 63% 29.96 in 10.0 mi WSW 9.2 mph - N/A   Scattered Clouds
1:53 PM 88.0 °F 93.8 °F 71.1 °F 57% 29.94 in 10.0 mi West 6.9 mph - N/A   Partly Cloudy
2:53 PM 89.1 °F 94.1 °F 70.0 °F 53% 29.91 in 10.0 mi Calm Calm - N/A   Partly Cloudy
3:53 PM 90.0 °F 95.4 °F 70.0 °F 52% 29.91 in 10.0 mi North 5.8 mph - N/A   Clear
4:53 PM 90.0 °F 94.5 °F 69.1 °F 50% 29.90 in 10.0 mi NW 4.6 mph - N/A   Partly Cloudy
5:53 PM 90.0 °F 93.6 °F 68.0 °F 48% 29.90 in 10.0 mi North 4.6 mph - N/A   Clear
6:53 PM 86.0 °F 91.5 °F 71.1 °F 61% 29.91 in 10.0 mi NNW 3.5 mph - N/A   Clear
7:53 PM 79.0 °F - 73.9 °F 84% 29.92 in 10.0 mi Calm Calm - N/A   Clear
8:53 PM 78.1 °F - 73.9 °F 87% 29.93 in 10.0 mi Calm Calm - N/A   Clear
9:53 PM 77.0 °F - 73.9 °F 90% 29.94 in 10.0 mi Calm Calm - N/A   Clear
10:53 PM 77.0 °F - 73.0 °F 88% 29.94 in 10.0 mi Calm Calm - N/A   Clear
11:53 PM 75.0 °F - 73.0 °F 94% 29.93 in 9.0 mi Calm Calm - N/A   Clear